Dewpoint
58 51 46 43 45 48 45 46 37 40 36 26 24 24 19 21 24 20 18 21 19 23 22 23 21 23 21 23 14 16 19 21 26 32 38 51 61 62 64 63 64 63 68 70 71 72 72 72 72 73 72 72 72 72 72 72 72 71 71 71 70 70 70 69 69 69 68 69 69 69 69 69 69 69 69 69 69 70 70 71 71 70 70 69 69 68 67 67 67 65 64 63 63 63 64 65 66
45 43 44 45 49 51 47 40 39 27 31 20 19 16 20 23 24 18 17 20 22 23 29 22 22 23 25 24 20 19 22 25 30 38 49 56 57 58 61 63 64 64 67 70 71 71 71 72 72 72 72 72 72 72 72 71 72 71 71 71 70 70 70 69 69 69 68 69 69 69 68 69 68 68 68 69 69 69 70 71 70 70 70 70 69 68 67 67 67 64 64 62 62 62 63 64 65
45 45 46 43 45 48 43 41 36 28 25 17 17 19 20 19 18 19 17 18 21 22 24 23 24 24 24 23 18 19 24 35 36 41 47 55 51 55 61 65 65 65 66 69 69 69 71 72 71 72 72 71 72 72 72 71 71 71 71 71 70 70 70 69 69 68 68 68 68 68 68 69 68 68 68 68 69 69 70 70 70 70 70 69 69 68 67 67 66 64 64 62 60 61 62 63 64
55 52 51 46 48 45 40 35 36 27 24 18 17 24 23 20 19 18 19 19 21 23 25 23 24 24 23 20 20 25 27 36 46 46 46 56 56 58 61 62 63 64 66 68 67 69 70 71 71 73 72 72 72 72 71 71 71 71 71 71 70 70 70 69 69 68 68 68 68 67 68 68 68 68 68 68 68 69 69 70 69 69 69 68 68 67 67 67 65 64 64 62 60 60 62 63 64
52 56 54 46 49 45 41 38 25 24 19 19 18 23 20 20 20 19 20 19 19 19 21 21 21 21 21 24 27 28 32 35 47 52 56 60 62 61 61 64 63 65 65 65 66 69 71 70 71 72 72 72 71 71 71 71 71 71 71 71 70 70 70 69 69 68 68 68 67 67 68 68 68 69 69 68 68 68 68 69 69 68 68 67 67 67 67 66 65 65 63 63 61 60 61 62 63
53 53 57 50 44 43 35 25 26 20 24 21 14 15 17 17 18 18 18 17 17 16 20 23 21 22 23 32 36 34 44 33 42 53 56 61 62 63 63 65 61 63 64 64 66 71 71 70 72 72 72 72 72 71 71 71 71 71 71 71 70 70 70 69 69 68 68 67 67 67 67 68 69 69 69 69 68 68 69 69 69 68 68 67 67 68 67 66 65 64 63 63 62 60 61 62 62
49 46 48 50 46 42 40 30 19 20 19 16 16 16 18 17 17 16 14 16 19 16 20 21 20 19 23 33 37 47 52 52 49 54 60 62 64 63 64 62 60 62 64 64 71 71 71 70 72 72 72 72 72 71 71 71 71 70 71 70 70 70 70 69 69 68 67 67 67 67 67 68 68 69 69 68 68 68 68 69 68 68 67 67 67 67 67 67 66 64 63 62 62 59 59 61 62
52 49 48 41 41 30 31 24 22 20 22 20 18 17 16 18 22 22 18 21 15 16 17 23 20 18 20 25 31 42 50 53 55 57 60 61 64 63 64 63 59 61 63 70 71 70 70 70 72 72 73 72 71 72 71 71 71 71 70 70 70 69 70 70 69 68 67 67 67 67 67 68 69 69 68 68 68 68 69 69 68 67 67 66 66 66 67 67 65 64 63 62 62 59 58 61 62
51 46 49 44 37 36 29 22 20 14 21 21 20 27 34 25 22 17 12 14 16 16 15 15 18 19 23 31 33 41 44 53 55 58 59 62 63 63 64 64 64 64 64 68 70 70 70 69 71 72 72 72 71 72 71 71 71 71 70 70 70 70 69 70 69 68 68 68 67 67 67 68 69 69 69 68 68 69 68 68 67 66 66 66 66 66 66 65 64 64 63 63 62 59 58 59 61
44 43 36 38 40 31 28 22 20 19 19 18 19 17 17 20 20 20 14 15 17 17 19 21 17 12 24 27 29 36 41 46 52 55 58 59 61 63 63 64 65 65 64 65 68 71 70 67 67 69 72 72 72 72 71 71 71 71 71 70 70 70 70 70 70 70 69 68 67 68 68 69 69 68 69 69 69 69 68 68 67 66 66 66 66 66 65 64 64 63 63 62 61 59 57 57 59
40 42 46 40 33 27 29 22 22 22 20 21 19 19 19 19 20 17 16 16 21 18 20 21 19 15 21 28 33 39 42 45 49 52 56 60 61 62 63 64 64 65 65 66 66 70 69 69 66 67 68 70 71 72 71 71 71 71 71 70 70 70 70 70 69 70 70 69 69 69 69 69 69 68 68 68 68 68 68 67 66 66 65 66 66 65 65 64 64 63 63 62 61 59 57 57 57
37 34 41 35 31 31 23 22 24 21 17 19 19 19 19 19 23 18 17 16 19 18 19 20 25 18 20 27 35 33 36 40 46 53 54 58 60 62 63 63 64 64 65 65 65 67 69 69 69 67 65 66 68 70 71 71 71 70 71 70 70 70 70 69 70 70 69 69 69 69 69 69 69 69 68 68 68 68 67 67 66 66 66 66 66 65 64 64 63 63 62 62 61 59 56 56 56
40 44 30 26 32 24 26 22 22 24 21 17 18 20 24 19 19 19 18 18 20 19 20 21 21 23 20 26 30 29 30 34 42 48 54 54 59 61 62 62 63 65 65 65 64 65 65 66 69 69 66 63 64 66 67 69 70 71 71 71 71 70 71 70 69 70 70 70 70 69 70 70 69 69 68 68 68 68 68 67 66 66 67 66 66 65 64 64 63 63 62 61 60 58 55 54 54
46 42 38 34 32 25 26 27 24 24 23 20 18 20 21 21 20 19 19 20 19 20 24 24 23 21 21 24 29 28 29 37 37 44 51 52 56 58 61 62 62 62 63 64 63 63 64 64 65 68 69 69 69 65 65 67 69 70 70 70 70 69 70 70 70 71 70 70 70 70 69 69 69 69 69 68 68 68 68 67 67 66 66 65 65 65 64 63 63 63 62 61 59 57 55 53 52
45 36 33 34 24 20 24 26 24 24 23 21 18 18 20 23 22 22 20 21 20 22 24 24 29 25 22 22 32 38 32 35 39 41 51 48 51 52 56 57 56 57 57 59 61 62 63 64 64 65 67 69 69 69 69 67 66 68 69 68 69 69 69 70 69 69 69 69 68 67 66 66 67 67 69 68 68 67 67 67 67 67 66 65 65 65 64 63 63 62 62 61 59 56 54 51 50
44 37 35 32 24 17 30 24 24 22 23 20 20 18 18 21 23 22 24 24 27 31 26 22 25 24 27 29 30 33 31 36 35 39 42 50 51 52 52 50 50 51 51 52 56 59 61 61 62 63 65 65 66 68 68 70 64 65 67 67 67 68 68 68 68 67 65 64 65 64 64 64 63 63 62 65 66 66 65 65 66 67 66 66 65 65 64 63 63 62 61 60 59 56 53 50 49
42 42 27 23 23 18 24 25 24 20 21 24 22 19 18 19 23 24 28 27 22 23 23 26 26 28 28 28 30 32 33 33 40 36 40 46 46 43 45 47 47 47 49 48 49 50 56 59 61 62 63 64 65 66 68 69 67 64 65 64 65 66 66 66 66 62 60 60 61 60 62 67 67 66 65 67 62 65 60 62 66 67 67 67 66 65 64 64 63 62 61 60 58 55 55 52 51
41 34 28 27 22 18 25 20 23 25 23 19 19 18 19 20 22 25 26 24 23 22 24 26 28 28 29 30 33 34 37 34 33 34 36 40 42 40 41 41 42 45 47 48 48 49 51 52 54 59 61 62 63 65 67 68 69 66 69 68 67 65 63 63 65 68 66 67 61 62 67 68 67 68 67 66 66 65 62 61 62 66 67 66 66 65 64 64 63 62 61 60 59 55 54 47 48
43 33 23 23 27 26 22 21 23 21 20 19 22 23 22 22 24 25 22 21 20 20 23 25 27 28 28 29 31 32 32 33 34 34 35 37 36 34 38 43 43 43 46 48 49 50 52 52 53 52 55 59 61 63 66 67 70 69 69 69 68 66 66 67 68 67 68 67 68 68 67 66 65 66 66 67 66 63 63 59 61 64 66 65 65 65 65 64 62 62 61 61 61 60 54 53 51
36 31 30 28 29 23 21 22 23 23 23 22 22 25 23 23 25 25 23 18 22 22 22 24 26 27 28 29 31 31 31 33 36 35 35 36 37 37 38 40 41 46 46 49 50 52 53 53 54 55 55 56 60 62 64 66 65 67 68 67 68 68 68 68 68 67 67 67 67 67 66 66 66 66 62 61 64 65 61 59 61 62 63 62 62 63 64 65 63 62 63 62 60 58 55 53 51
32 30 27 28 18 24 22 23 23 24 24 23 23 23 22 23 25 24 22 21 20 25 26 25 25 27 28 29 31 30 31 32 34 35 35 37 38 39 39 41 43 45 48 49 50 51 54 54 54 54 54 55 59 61 63 65 64 65 66 67 67 67 67 66 66 67 67 67 67 66 66 66 66 66 66 66 66 66 64 64 64 64 64 63 61 64 63 63 61 61 59 58 58 56 55 54 53
35 21 24 20 20 25 24 25 26 25 26 23 23 21 23 25 25 22 21 19 23 27 27 27 27 28 28 28 30 31 31 33 32 34 35 37 39 39 39 41 42 47 49 48 50 51 54 54 54 54 55 56 56 62 63 63 64 64 65 65 65 66 67 67 67 67 66 67 67 66 65 66 66 64 65 65 64 64 65 65 65 64 63 64 63 63 62 62 62 61 60 60 57 57 55 54 53
27 23 21 24 24 23 25 25 29 26 26 24 22 24 24 22 21 22 21 21 26 28 28 28 28 28 29 30 30 31 34 33 32 35 35 37 39 41 41 41 42 47 48 49 51 52 54 54 53 55 56 55 56 59 64 63 63 64 66 65 65 65 66 66 66 66 66 66 66 65 65 65 65 64 64 64 65 64 64 64 64 65 64 64 63 63 63 62 62 61 59 58 58 56 55 54 52
27 20 22 24 24 23 25 27 29 24 24 23 24 25 23 21 19 24 22 27 27 27 28 28 28 28 29 29 30 32 33 33 34 34 37 37 40 42 44 42 44 47 49 50 52 53 53 52 53 55 56 55 55 57 62 63 63 65 65 63 64 63 63 64 64 64 64 63 64 64 63 64 64 64 64 65 65 65 65 64 64 63 63 62 62 62 62 62 61 60 59 58 58 57 55 54 53
24 22 24 26 24 24 25 25 25 25 25 24 28 25 21 21 21 23 22 27 27 28 28 28 28 28 28 29 30 32 33 37 33 36 38 39 42 43 45 44 44 47 48 50 52 52 51 51 54 56 56 51 54 58 62 62 63 64 63 62 62 61 62 61 61 61 62 62 62 63 62 64 64 64 64 64 64 64 64 63 63 63 63 62 62 62 62 61 61 60 60 59 59 58 56 54 53
25 24 25 24 23 24 23 24 24 24 25 24 24 22 22 21 22 21 24 26 27 27 27 28 28 27 28 28 29 30 31 35 39 35 35 42 42 39 44 44 44 45 48 50 50 50 49 50 57 58 59 61 61 60 63 62 62 61 61 61 61 60 60 59 59 59 59 60 61 61 62 62 63 64 64 64 63 62 62 62 61 61 61 61 61 61 61 62 60 60 60 59 58 56 55 55 55
25 24 25 24 23 24 25 23 23 23 25 23 22 21 21 23 22 19 26 27 27 27 27 27 27 27 27 28 29 29 31 33 33 37 37 41 39 40 42 43 44 46 48 49 48 49 49 51 56 57 59 59 59 58 58 58 59 58 58 59 60 59 59 58 58 57 58 59 59 60 60 61 61 61 62 63 63 62 61 61 60 60 59 59 60 60 60 60 58 57 57 57 57 55 54 55 56
25 25 23 22 22 24 23 23 22 22 22 22 21 20 22 22 27 19 26 27 27 26 26 26 28 27 27 29 29 35 31 34 32 37 38 36 38 38 40 42 43 46 48 47 48 48 49 51 53 53 54 57 57 56 55 55 56 55 54 55 55 55 55 56 55 55 54 55 57 58 59 59 60 60 61 61 61 60 59 58 58 57 57 58 58 59 59 58 57 56 56 57 57 57 56 55 56
25 24 21 22 22 21 22 22 22 22 23 22 22 21 19 22 20 23 26 26 26 26 25 26 26 26 29 29 30 31 31 32 34 35 36 36 37 38 40 43 43 45 46 47 47 48 49 50 52 51 51 50 51 51 50 50 51 50 49 50 51 52 51 51 51 51 52 52 53 55 57 57 58 58 58 58 58 58 58 58 58 57 57 57 58 57 58 58 57 57 56 57 57 57 54 54 55
26 23 23 22 22 22 22 22 23 22 24 24 22 21 21 20 21 25 26 25 25 25 25 25 27 27 28 28 28 30 32 33 34 36 36 36 37 38 41 42 42 43 46 46 47 47 49 50 50 50 50 48 47 47 47 47 47 47 47 47 47 46 47 48 47 48 49 50 51 52 54 56 57 57 57 57 56 56 56 56 56 57 57 57 57 57 56 56 56 56 56 55 54 54 52 51 52
24 24 23 25 25 24 24 22 22 22 24 23 23 24 21 22 24 25 26 25 24 24 24 25 26 26 27 30 29 31 32 33 33 35 37 38 35 38 40 40 41 43 45 46 46 47 48 49 49 46 47 46 45 44 45 46 45 44 44 45 44 44 44 44 45 45 46 47 47 49 51 52 53 55 56 56 55 55 54 54 54 54 55 56 56 56 54 53 52 52 52 55 53 53 52 50 50
23 25 24 29 25 28 23 24 22 21 23 22 22 27 21 20 23 24 25 25 24 23 24 24 26 25 27 29 28 29 30 31 33 33 35 35 35 37 39 39 40 42 43 44 46 48 47 48 47 46 44 44 44 45 42 43 42 42 42 44 43 43 42 42 42 43 44 44 45 45 47 48 50 52 52 53 52 52 52 51 51 51 51 52 51 52 52 52 51 49 48 50 51 48 48 46 47
24 24 29 29 29 28 25 24 23 27 21 23 21 21 22 19 22 24 25 24 24 22 23 24 25 25 27 28 27 28 30 31 34 32 34 36 36 35 37 37 40 42 42 43 45 47 47 47 47 45 44 43 43 42 42 41 41 40 40 40 40 40 40 40 40 41 42 43 43 43 44 45 46 49 49 49 49 49 49 48 49 49 48 48 48 48 48 49 46 44 42 42 46 44 42 43 44
28 28 26 32 26 23 24 24 25 31 22 21 21 20 20 21 20 23 24 24 23 22 22 24 25 25 26 27 26 27 28 31 30 31 33 35 35 36 37 40 39 40 41 43 45 46 47 48 47 46 44 43 43 42 41 40 40 39 39 38 39 38 38 38 39 39 40 41 42 42 43 43 44 45 46 47 46 46 46 46 46 47 47 47 47 47 47 47 46 43 41 41 41 41 40 41 41
31 29 28 27 26 24 23 25 23 25 23 22 21 21 21 22 20 21 23 24 23 23 22 23 25 25 26 26 26 26 28 30 30 31 33 35 36 36 37 39 39 40 40 42 44 46 46 48 47 46 45 43 42 41 41 40 39 38 38 37 37 36 36 37 37 37 38 39 40 41 41 41 41 43 43 44 44 43 43 43 43 43 43 44 43 43 44 46 46 45 44 42 42 40 39 40 39
24 27 29 28 27 26 24 24 25 24 22 22 22 21 21 21 22 21 21 23 23 22 21 22 25 25 25 27 26 27 29 29 31 33 35 36 37 38 37 38 39 39 40 41 43 44 44 45 44 44 44 43 43 42 41 41 40 38 37 37 35 35 35 35 35 35 35 36 38 38 39 39 40 40 41 41 41 41 41 41 40 41 41 41 41 41 41 41 42 43 40 40 38 38 37 37 37
24 32 32 25 26 25 26 26 25 25 24 23 23 24 24 24 25 22 21 21 22 21 21 21 25 25 26 27 27 27 28 30 35 36 37 37 39 38 39 38 38 38 39 40 41 42 44 44 43 42 44 44 43 43 42 40 38 37 36 35 34 34 34 33 34 34 34 34 35 36 36 36 38 38 39 39 39 39 39 38 38 38 38 38 38 39 39 39 40 41 40 38 36 30 30 33 33
24 30 30 25 32 26 26 27 26 26 26 25 25 25 26 26 26 26 22 21 21 21 21 21 24 25 26 27 28 29 31 35 35 35 36 37 37 40 40 39 39 38 37 39 40 42 43 43 42 42 41 40 41 40 39 38 37 37 35 33 33 33 33 32 32 32 32 33 33 33 33 34 34 35 36 37 37 37 37 36 35 35 36 36 36 36 35 36 36 36 38 38 33 28 25 29 31
31 28 29 30 28 31 28 25 26 26 28 24 25 25 25 26 26 27 27 22 22 22 22 21 23 25 27 27 29 30 33 33 32 33 35 36 38 39 38 38 38 38 38 39 41 42 42 41 41 40 40 39 39 39 38 37 36 35 33 33 31 31 32 32 31 31 31 29 29 30 30 31 31 31 32 33 33 33 33 32 31 30 29 32 30 30 30 30 31 32 32 33 35 30 26 27 26
28 28 28 27 31 32 29 26 26 26 25 25 27 26 26 27 28 28 29 28 25 24 23 31 26 26 27 27 29 30 32 32 31 31 33 36 37 36 37 37 37 37 38 37 38 39 40 40 40 39 38 38 37 36 36 35 34 33 33 32 31 30 29 30 27 28 27 26 26 27 28 28 28 28 29 29 29 29 28 27 26 26 24 24 25 24 26 27 27 28 29 29 31 32 26 22 24
33 32 30 30 32 30 28 26 26 26 25 27 26 26 26 27 27 28 29 30 29 30 30 30 32 34 32 34 33 31 31 31 30 31 32 35 35 35 36 37 37 37 37 37 37 37 38 39 38 37 37 36 36 35 34 34 33 31 31 31 31 30 29 27 25 24 24 25 24 24 25 26 27 26 27 27 28 27 27 26 25 25 25 25 23 23 24 27 27 26 26 26 26 26 25 25 23
29 34 31 28 28 28 28 30 28 28 29 28 28 27 28 31 30 29 28 28 27 28 27 28 29 33 31 30 31 32 34 31 30 30 32 34 34 35 35 36 37 36 35 36 35 37 37 38 37 36 36 35 35 35 34 33 32 31 31 30 28 26 24 23 22 21 21 21 22 23 23 25 25 25 25 26 27 27 26 26 25 24 24 25 26 25 24 25 26 26 26 23 24 26 22 20 18
31 30 35 29 28 31 33 31 31 27 25 30 29 27 27 29 29 27 27 27 27 28 28 27 28 30 31 31 31 30 31 31 31 31 32 33 33 34 35 35 35 34 33 35 36 36 37 37 37 37 36 37 38 36 35 34 33 33 32 30 27 23 20 22 21 21 21 21 22 21 22 23 24 24 24 24 24 25 25 24 24 23 23 23 25 24 24 24 25 27 27 24 23 26 24 20 20
29 38 38 32 30 33 33 33 33 30 32 34 29 31 27 28 29 31 28 27 27 27 27 28 27 28 30 30 30 30 31 30 30 31 32 32 33 34 34 35 34 32 32 33 35 36 36 36 36 35 35 35 35 35 35 35 32 29 26 24 23 21 20 19 19 19 19 19 17 18 19 21 22 24 24 24 24 24 23 22 22 22 22 23 25 24 24 24 24 25 26 26 24 23 23 23 22
34 37 38 35 32 36 36 33 32 32 30 29 29 32 27 28 29 30 30 24 24 25 26 27 27 27 29 30 30 30 30 31 31 31 31 32 33 34 34 32 32 32 32 33 34 34 35 34 33 33 32 32 32 33 33 31 31 27 25 23 22 22 20 21 21 22 19 18 15 15 15 17 20 22 23 23 23 24 24 22 21 21 21 22 24 24 24 24 24 23 23 25 25 24 23 24 24
39 38 37 37 37 35 35 31 30 30 28 29 29 31 27 27 30 29 30 28 25 24 25 25 26 27 28 29 29 30 30 30 31 31 31 32 33 33 31 30 30 32 33 34 33 34 33 32 31 30 30 30 31 30 30 29 27 26 23 21 20 20 20 19 19 19 19 18 16 15 16 16 17 19 22 22 22 23 23 23 22 21 21 23 25 24 23 22 23 23 24 24 25 24 24 24 25
38 38 36 34 33 32 31 31 29 27 28 29 31 31 29 27 30 29 30 29 27 27 26 26 27 28 28 28 29 29 29 30 30 30 31 32 31 30 29 29 30 30 31 31 32 32 32 31 29 28 28 28 29 29 28 28 27 24 22 21 19 19 20 19 19 18 18 17 15 16 16 17 18 19 22 22 24 24 23 23 22 22 23 24 24 23 23 22 22 23 23 23 24 24 24 23 24
37 33 32 32 30 29 27 27 28 26 26 27 30 30 29 27 27 30 30 24 26 26 25 26 26 26 27 28 28 28 29 30 30 30 30 30 28 28 29 28 29 29 30 31 32 32 31 30 27 26 26 27 28 29 28 28 26 25 23 21 21 21 20 20 17 17 16 15 15 15 16 16 17 21 22 22 22 23 23 23 23 22 23 23 23 24 25 23 22 24 24 23 23 24 24 24 24
34 32 31 29 27 26 25 26 24 25 25 22 26 30 29 28 28 28 25 24 24 25 25 25 26 26 27 28 28 28 30 29 29 29 29 29 28 28 27 27 29 28 29 30 30 30 30 28 26 25 25 26 27 28 28 27 26 25 25 23 22 21 20 20 18 17 16 14 14 15 15 16 18 20 21 21 22 22 23 22 23 22 23 25 25 25 25 26 23 23 23 23 24 24 24 23 23
31 30 30 28 26 25 22 25 25 25 25 24 23 30 28 29 27 30 30 27 25 27 28 27 26 26 27 27 27 28 29 29 29 29 28 28 28 28 27 27 28 28 29 29 29 29 28 27 26 25 25 26 27 27 27 26 26 26 25 24 24 24 22 20 19 17 17 17 18 15 16 18 19 20 21 22 23 24 25 25 24 24 25 25 25 25 24 24 23 22 21 20 21 22 22 22 22
29 33 32 30 29 25 22 26 24 24 25 22 25 25 26 24 27 25 23 24 25 26 27 29 28 28 28 28 28 29 28 28 29 29 28 28 29 28 27 28 28 28 28 28 28 28 27 26 26 25 24 25 25 26 26 25 26 26 26 26 25 23 22 21 22 23 20 19 18 16 16 18 19 20 22 23 25 23 23 24 24 24 23 22 22 23 23 22 22 20 20 20 20 21 21 21 20
31 33 34 30 30 29 27 26 24 22 23 21 20 25 25 25 26 26 25 25 25 26 27 28 27 27 28 27 27 28 28 28 29 29 29 28 28 28 27 27 28 27 27 27 27 27 27 26 25 24 24 24 25 25 25 25 25 25 25 24 23 24 24 23 24 24 22 20 18 17 17 18 20 22 23 24 24 24 23 23 23 22 22 21 21 22 22 21 21 19 20 21 19 22 19 20 19
31 32 30 31 34 32 29 26 25 22 23 26 24 23 25 24 24 24 24 23 24 25 25 26 26 27 27 27 28 28 28 28 29 29 28 28 28 28 27 27 27 26 26 26 27 27 26 26 24 23 23 24 25 25 24 24 25 25 25 23 23 22 21 20 21 21 21 21 20 19 19 20 20 22 24 23 23 23 22 21 21 21 22 21 21 20 20 20 21 19 20 18 17 19 20 20 19
32 28 32 35 36 34 29 26 25 25 25 26 25 25 24 23 24 24 23 23 23 24 24 25 27 28 26 28 28 28 28 28 29 29 28 28 28 27 27 27 26 25 25 25 26 26 26 26 23 23 23 23 24 24 24 24 24 24 23 22 21 21 21 22 22 21 21 21 21 21 20 20 20 23 24 23 20 19 19 22 20 20 20 21 21 20 20 19 18 18 20 19 16 17 17 17 18
32 32 37 30 27 26 27 27 25 23 24 25 24 24 25 25 25 21 22 22 22 23 24 24 26 27 27 28 28 28 28 29 29 28 28 28 27 27 26 25 25 25 26 25 26 28 26 25 23 23 23 23 23 24 24 24 24 25 25 22 22 22 22 22 22 22 20 19 19 19 20 21 22 22 21 20 19 19 19 19 19 20 19 20 19 17 17 16 16 13 15 16 16 15 15 14 16
35 35 32 35 30 28 28 28 26 26 25 21 24 25 25 28 25 22 22 22 22 22 24 24 25 26 27 27 28 28 28 28 28 28 28 28 27 26 25 25 24 24 24 24 26 27 25 24 23 23 24 24 24 23 23 23 24 25 24 23 22 22 22 21 21 21 19 19 20 20 20 19 19 21 20 20 19 18 18 17 17 17 17 17 16 16 15 14 14 13 12 12 13 12 11 11 12
29 28 27 30 28 31 29 27 26 26 23 24 24 23 25 27 26 23 22 22 22 22 24 25 25 26 27 28 28 28 28 28 28 28 28 27 26 26 25 24 23 23 24 24 25 26 25 24 23 23 22 23 22 22 22 24 24 23 22 20 20 21 21 21 21 21 20 20 20 20 19 20 20 20 20 19 17 17 16 16 15 17 16 16 15 13 13 12 13 10 12 15 13 10 8 10 11
30 30 29 30 29 27 24 25 27 27 26 24 22 23 26 30 24 24 23 23 23 24 24 25 25 25 27 28 28 28 28 28 28 28 27 27 26 25 24 24 23 23 23 23 25 25 24 23 23 22 22 22 21 21 22 23 22 21 20 20 20 20 21 20 19 19 19 20 19 20 20 19 18 19 19 18 18 17 16 17 15 15 15 15 15 13 9 10 9 9 7 18 15 8 7 7 8